Location: Newark
(43.9494°N, 6.8108°E)
Time: 08:10:15
(UTC+00:00)

A-11 Canister half - Pass Details

Date: 25 October 2019
Orbit: 1514 x 1686 km, 47.2° (Epoch: 17 November)

Event Time Altitude Azimuth Distance (km) Brightness Sun altitude
Rises 23:47:44 0° 223° (SW) 4,923 - -57.3°
Reaches altitude 10° 23:50:59 10° 220° (SW) 3,928 - -57.1°
Maximum altitude 00:00:46 58° 144° (SE) 1,867 - -56.6°
Exits shadow 00:08:57 15° 71° (ENE) 3,432 11.0 -56.1°
Drops below altitude 10° 00:10:17 10° 69° (ENE) 3,829 11.3 -56.0°
Sets 00:13:24 0° 66° (ENE) 4,793 12.0 -55.7°
